sat.trackr.live / text

‹ back to catalog

STARLINK-32790

NORAD 63048 · 2025-034V

PAYLOAD ACTIVE UNKNOWN

§ Identity

Operator
Country
US
Launch date
2025-02-18
Launch site
AFETR
Launch vehicle
Mass (kg)
RCS (m²)

Purposes: comms

External: N2YO · Heavens-Above · Gunter

§ Orbital elements

Epoch: 2026-05-25T04:00:03.998880Z

Period
93.86 min
Inclination
53.1589°
Eccentricity
0.0001554
Mean motion
15.34236567 rev/d
Perigee alt
462.1 km
Apogee alt
464.3 km
Semi-major
6,841.3 km
B*
3.2984e-3
RAAN
263.1295°
Arg perigee
16.8722°
Mean anomaly
300.2514°
Rev number
565

§ Raw data

STARLINK-327901 63048U 25034V   26145.16671295  .00112160  00000+0  32984-2 0  99982 63048  53.1589 263.1295 0001554  16.8722 300.2514 15.34236567  5656

JSON: /api/v1/satellites/63048 · /tle

For live sub-satellite position, see the globe view (requires WebGL).

§ Visibility from observer

Set your observer location to see the next 7 days of passes ≥ 10°. The values pass through the URL so the page stays shareable.

No JS? Fill the form by hand. The geolocation button needs JavaScript.